[TLELIST] Archives

 

[TLELIST] Current TLEs

April 8th 2025 PDT

HST 1 20580U 90037B 25097.88661893 .00009377 00000-0 36441-3 0 9993 2 20580 28.4677 161.1254 0002187 50.6844 309.3944 15.24295377721946 ISS (ZARYA) 1 25544U 98067A 25098.06266060 .00011981 00000-0 22264-3 0 9999 2 25544 51.6388 294.3397 0004854 22.7369 122.9591 15.49335436504281 CXO 1 25867U 99040B 25100.68080164 .00000827 00000-0 00000+0 0 9997 2 25867 48.0416 132.9947 8525309 308.3667 0.0958 0.37811186 26840 ...Continue Reading

[TLELIST] Current TLEs

April 7th 2025 PDT

HST 1 20580U 90037B 25096.90452363 .00010827 00000-0 42220-3 0 9999 2 20580 28.4677 167.7717 0002119 40.8311 319.2441 15.24276879721798 ISS (ZARYA) 1 25544U 98067A 25097.06905128 .00012809 00000-0 23764-3 0 9999 2 25544 51.6365 299.2598 0005005 16.5600 343.5551 15.49310379504131 CXO 1 25867U 99040B 25098.03511831 .00000872 00000-0 00000+0 0 9992 2 25867 47.9841 133.1252 8531084 308.3107 359.9512 0.37808661 26833 ...Continue Reading

[TLELIST] Current TLEs

April 6th 2025 PDT

HST 1 20580U 90037B 25096.24978619 .00012480 00000-0 48801-3 0 9991 2 20580 28.4675 172.2025 0002082 33.9053 326.1674 15.24263889721954 ISS (ZARYA) 1 25544U 98067A 25096.03700594 .00015269 00000-0 28194-3 0 9990 2 25544 51.6369 304.3678 0004922 13.5339 346.5781 15.49280872503978 CXO 1 25867U 99040B 25098.03511831 .00000872 00000-0 00000+0 0 9992 2 25867 47.9841 133.1252 8531084 308.3107 359.9512 0.37808661 26833 ...Continue Reading

[TLELIST] Current TLEs

April 5th 2025 PDT

HST 1 20580U 90037B 25094.94029215 .00012893 00000-0 50495-3 0 9995 2 20580 28.4673 181.0642 0001952 20.1120 339.9551 15.24230128721757 ISS (ZARYA) 1 25544U 98067A 25095.06944392 .00017513 00000-0 32243-3 0 9992 2 25544 51.6361 309.1566 0004849 10.5473 349.5617 15.49250234503827 CXO 1 25867U 99040B 25095.39036286 .00000903 00000-0 00000-0 0 9990 2 25867 47.9212 133.2668 8535756 308.2377 359.9595 0.37806383 15664 ...Continue Reading

[TLELIST] Current TLEs

April 4th 2025 PDT

HST 1 20580U 90037B 25093.69624557 .00013338 00000-0 52311-3 0 9990 2 20580 28.4672 189.4829 0001862 4.9506 355.1106 15.24199132721309 ISS (ZARYA) 1 25544U 98067A 25094.12753266 .00015317 00000-0 28339-3 0 9997 2 25544 51.6389 313.8160 0005051 10.2348 133.1450 15.49220555503671 CXO 1 25867U 99040B 25095.39036286 .00000903 00000-0 00000-0 0 9990 2 25867 47.9212 133.2668 8535756 308.2377 359.9595 0.37806383 15664 ...Continue Reading

[TLELIST] Current TLEs

April 3rd 2025 PDT

HST 1 20580U 90037B 25092.58312973 .00012518 00000-0 49093-3 0 9995 2 20580 28.4673 197.0153 0001792 351.7568 8.2997 15.24169189721390 ISS (ZARYA) 1 25544U 98067A 25093.13425953 .00020483 00000-0 37635-3 0 9995 2 25544 51.6367 318.7328 0004848 3.8316 356.2709 15.49192057503527 CXO 1 25867U 99040B 25095.39036286 .00000903 00000-0 00000-0 0 9990 2 25867 47.9212 133.2668 8535756 308.2377 359.9595 0.37806383 15664 ...Continue Reading

[TLELIST] Current TLEs

April 2nd 2025 PDT

HST 1 20580U 90037B 25091.46999278 .00010749 00000-0 42079-3 0 9991 2 20580 28.4678 204.5482 0001734 338.2290 21.8230 15.24142639720966 ISS (ZARYA) 1 25544U 98067A 25092.10239068 .00016360 00000-0 28998-3 0 9992 2 25544 51.6353 323.8439 0003442 72.6732 287.4633 15.50393872503360 CXO 1 25867U 99040B 25092.74607696 .00000906 00000-0 00000-0 0 9998 2 25867 47.8580 133.4184 8540188 308.1512 0.0724 0.37808999 15653 ...Continue Reading

[TLELIST] Current TLEs

April 1st 2025 PDT

HST 1 20580U 90037B 25090.61875820 .00011017 00000-0 43176-3 0 9991 2 20580 28.4680 210.3081 0001679 327.2053 32.8437 15.24123827720837 ISS (ZARYA) 1 25544U 98067A 25091.13552361 .00016105 00000-0 28592-3 0 9995 2 25544 51.6363 328.6366 0003495 70.2380 289.8986 15.50361619503219 CXO 1 25867U 99040B 25092.74607696 .00000906 00000-0 00000-0 0 9998 2 25867 47.8580 133.4184 8540188 308.1512 0.0724 0.37808999 15653 ...Continue Reading

[TLELIST] Current TLEs

March 31st 2025 PDT

HST 1 20580U 90037B 25090.02943569 .00010741 00000-0 42089-3 0 9997 2 20580 28.4681 214.2955 0001632 319.3218 40.7254 15.24111311721005 ISS (ZARYA) 1 25544U 98067A 25090.50208904 .00016177 00000-0 28736-3 0 9995 2 25544 51.6395 331.7733 0003654 68.9145 353.5231 15.50341422503118 CXO 1 25867U 99040B 25092.74607696 .00000906 00000-0 00000+0 0 9997 2 25867 47.8580 133.4184 8540188 308.1512 0.0724 0.37808999 26813 ...Continue Reading

[TLELIST] Current TLEs

March 31st 2025 PDT

HST 1 20580U 90037B 25090.02943569 .00010741 00000-0 42089-3 0 9997 2 20580 28.4681 214.2955 0001632 319.3218 40.7254 15.24111311721005 ISS (ZARYA) 1 25544U 98067A 25090.50208904 .00016177 00000-0 28736-3 0 9995 2 25544 51.6395 331.7733 0003654 68.9145 353.5231 15.50341422503118 CXO 1 25867U 99040B 25092.74607696 .00000906 00000-0 00000+0 0 9997 2 25867 47.8580 133.4184 8540188 308.1512 0.0724 0.37808999 26813 ...Continue Reading
  • This mailing list is a public mailing list - anyone may join or leave, at any time.
  • This mailing list is announce-only.

International Space Station (ISS) / Hubble Space Telescope (HST) / Chandra X-Ray Observatory Orbital Data via EMAIL

Privacy Policy:

Private list